This is the latest recevied weather packets stored in our database for station/object W4SKW. If no packets are shown the sender has not sent any weather packets the latest 10 day(s).
| Time | Temp. | Humidity | Pressure | Rain* | Wind** | Luminosity | Snow |
|---|---|---|---|---|---|---|---|
| 1777560432 | 16.11° C | 74% | 1014.6 hPa | 0 mm | - | 168 W/m² | - |
| 1777560131 | 16.11° C | 75% | 1014.7 hPa | 0 mm | - | 160 W/m² | - |
| 1777559827 | 15.56° C | 76% | 1014.6 hPa | 0 mm | - | 113 W/m² | - |
| 1777559523 | 15.56° C | 83% | 1014.6 hPa | 0 mm | - | 117 W/m² | - |
| 1777559220 | 15.56° C | 82% | 1014.6 hPa | 0 mm | - | 103 W/m² | - |
| 1777558915 | 15° C | 77% | 1014.5 hPa | 0 mm | - | 102 W/m² | - |
| 1777558611 | 15° C | 77% | 1014.5 hPa | 0 mm | - | 102 W/m² | - |
| 1777558307 | 15° C | 78% | 1014.5 hPa | 0 mm | - | 105 W/m² | - |
| 1777558004 | 15° C | 76% | 1014.7 hPa | 0 mm | - | 93 W/m² | - |
| 1777557699 | 15° C | 76% | 1014.4 hPa | 0 mm | - | 112 W/m² | - |
| 1777557396 | 15° C | 79% | 1014.5 hPa | 0 mm | - | 99 W/m² | - |
| 1777557087 | 15° C | 79% | 1014.5 hPa | 0 mm | - | 72 W/m² | - |
| 1777556782 | 15° C | 81% | 1014.5 hPa | 0 mm | - | 75 W/m² | - |
| 1777556480 | 14.44° C | 82% | 1014.5 hPa | 0 mm | - | 69 W/m² | - |
| 1777556179 | 14.44° C | 84% | 1014.4 hPa | 0 mm | - | 46 W/m² | - |
| 1777555875 | 14.44° C | 82% | 1014.4 hPa | 0 mm | - | 48 W/m² | - |
| 1777555571 | 14.44° C | 82% | 1014.4 hPa | 0 mm | - | 48 W/m² | - |
| 1777555268 | 13.89° C | 84% | 1014.1 hPa | 0 mm | - | 54 W/m² | - |
| 1777554964 | 13.89° C | 85% | 1014.1 hPa | 0 mm | - | 54 W/m² | - |
| 1777554661 | 13.89° C | 85% | 1014.3 hPa | 0 mm | - | 60 W/m² | - |
| 1777554358 | 13.89° C | 84% | 1014.1 hPa | 0 mm | - | 63 W/m² | - |
| 1777554055 | 13.89° C | 84% | 1013.8 hPa | 0 mm | - | 52 W/m² | - |
| 1777553751 | 13.33° C | 89% | 1013.9 hPa | 0 mm | - | 39 W/m² | - |
| 1777553449 | 13.33° C | 89% | 1013.9 hPa | 0 mm | - | 39 W/m² | - |
| 1777553144 | 13.33° C | 87% | 1013.6 hPa | 0 mm | - | 37 W/m² | - |
* Rain latest hour (hover to see other rain measurements)
** Current wind speed in m/s (hover to see current wind gust speed)